Campo, CA

4:15 PM PDT on August 22, 2019 (GMT -0700)
Campo

Weather History for KCZZ - June, 2019

Change the Weather History Date:

Saturday, June 8, 2019

  Actual Average Record
Temperature  
Mean Temperature 67 °F 64 °F  
Max Temperature 88 °F 85 °F 99 °F (1985)
Min Temperature 45 °F 44 °F 32 °F (1988)
Degree Days  
Heating Degree Days 0 3  
Month to date heating degree days 17 25  
Since 1 June heating degree days 17 25  
Since 1 July heating degree days 3032 2952  
Cooling Degree Days 2 2  
Month to date cooling degree days 12 16  
Year to date cooling degree days 14 46  
Since 1 June cooling degree days 12 16  
Growing Degree Days 14 (Base 50)    
Moisture  
Dew Point 46 °F    
Average Humidity 57    
Maximum Humidity 92    
Minimum Humidity 22    
Precipitation  
Precipitation 0.00 in 0.00 in 0.02 in (1968)
Month to date precipitation 0.00 0.03  
Year to date precipitation 12.74 10.07  
Sea Level Pressure  
Sea Level Pressure 29.84 in    
Wind  
Wind Speed 7 mph (NE)    
Max Wind Speed 21 mph    
Max Gust Speed 25 mph    
T = Trace of Precipitation, MM = Missing Value Source: NWS Daily Summary

Daily Weather History Graph

Daily Weather History Graph

Search for Another Location

Airport or City:

Astronomy

Jun. 08, 2019 Rise Set
Actual Time 5:37 AM PDT 7:52 PM PDT
Civil Twilight 5:09 AM PDT 8:20 PM PDT
Nautical Twilight 4:34 AM PDT 8:55 PM PDT
Astronomical Twilight 3:57 AM PDT 9:32 PM PDT
Moon 11:03 AM PDT (6/8) 12:03 AM PDT (6/8)
Length of Visible Light 15h 11m
Length of Day
14h 14m
Waxing Crescent, 34% of the Moon is Illuminated
Jun 8
Waxing Crescent
Jun 9
First Quarter
Jun 17
Full
Jun 25
Last Quarter
Jul 2
New

Hourly Weather History & Observations

Time (PDT) Temp. Windchill Dew Point Humidity Pressure Visibility Wind Dir Wind Speed Gust Speed Precip Events Conditions
12:52 AM 50.0 °F - 46.9 °F 89% 29.81 in - NE 5.8 mph - N/A   Unknown
1:52 AM 48.0 °F - 45.0 °F 89% 29.81 in - NE 6.9 mph - N/A   Unknown
2:52 AM 46.9 °F - 43.0 °F 86% 29.81 in - NE 6.9 mph - N/A   Unknown
3:52 AM 46.0 °F 43.1 °F 42.1 °F 86% 29.81 in - NE 5.8 mph - N/A   Unknown
4:52 AM 46.0 °F 42.5 °F 42.1 °F 86% 29.82 in - NE 6.9 mph - N/A   Unknown
5:52 AM 45.0 °F 41.8 °F 42.1 °F 90% 29.83 in - NE 5.8 mph - N/A   Unknown
6:52 AM 52.0 °F - 44.1 °F 74% 29.84 in - ENE 4.6 mph - N/A   Unknown
7:52 AM 62.1 °F - 48.9 °F 62% 29.84 in - ENE 3.5 mph - N/A   Unknown
8:52 AM 71.1 °F - 42.1 °F 35% 29.83 in - Calm Calm - N/A   Unknown
9:52 AM 75.0 °F - 41.0 °F 29% 29.85 in - SSW 6.9 mph - N/A   Unknown
10:52 AM 79.0 °F - 37.0 °F 22% 29.84 in - WNW 4.6 mph - N/A   Unknown
11:52 AM 81.0 °F - 39.9 °F 23% 29.84 in - SW 9.2 mph - N/A   Unknown
12:52 PM 82.9 °F - 39.9 °F 22% 29.83 in - Variable 4.6 mph - N/A   Unknown
1:52 PM 84.9 °F - 42.1 °F 22% 29.82 in - SW 5.8 mph - N/A   Unknown
2:52 PM 84.0 °F - 46.9 °F 27% 29.83 in - SW 13.8 mph - N/A   Unknown
3:52 PM 84.0 °F - 48.0 °F 28% 29.83 in - SW 11.5 mph - N/A   Unknown
4:52 PM 81.0 °F - 51.1 °F 35% 29.83 in - SW 15.0 mph - N/A   Unknown
5:52 PM 78.1 °F - 53.1 °F 42% 29.84 in - SSW 13.8 mph - N/A   Unknown
6:52 PM 73.9 °F - 54.0 °F 50% 29.85 in - SSW 8.1 mph - N/A   Unknown
7:52 PM 69.1 °F - 53.1 °F 57% 29.86 in - Calm Calm - N/A   Unknown
8:52 PM 61.0 °F - 51.1 °F 70% 29.87 in - North 3.5 mph - N/A   Unknown
9:52 PM 57.0 °F - 50.0 °F 77% 29.88 in - NE 4.6 mph - N/A   Unknown
10:52 PM 57.0 °F - 50.0 °F 77% 29.88 in - NE 5.8 mph - N/A   Unknown
11:52 PM 57.0 °F - 50.0 °F 77% 29.88 in - NE 4.6 mph - N/A   Unknown